Location: Peebles
(55.6412°N, 3.1714°W)
Time: 00:06:26
(UTC+00:00)

Cosmos 1354 Rocket - Visible Passes

Search period start: 28 January 2022 00:00
Search period end: 07 February 2022 00:00
Orbit: 764 x 783 km, 74.0° (Epoch: 27 January)

Date Brightness Start Highest point End Pass type
(mag) Time Alt. Az. Time Alt. Az. Time Alt. Az.
28 Jan 4.7 04:32:42 51° ESE 04:32:42 51° ESE 04:36:48 10° SE visible
28 Jan 4.9 06:13:08 27° W 06:13:24 27° W 06:17:46 10° SSW visible
28 Jan 4.5 19:12:16 10° S 19:16:30 41° SE 19:16:30 41° SE visible
28 Jan 5.9 20:54:28 10° WSW 20:56:58 26° WSW 20:56:58 26° WSW visible
29 Jan 5.9 03:58:52 24° ESE 03:58:52 24° ESE 04:01:07 10° SE visible
29 Jan 4.7 05:39:19 35° SW 05:39:19 35° SW 05:43:03 10° S visible
29 Jan 4.8 18:37:28 10° SSE 18:42:04 30° ESE 18:42:56 29° E visible
29 Jan 4.6 20:18:43 10° SW 20:23:23 56° W 20:23:23 56° W visible
29 Jan 6.9 22:03:33 10° WNW 22:03:50 11° WNW 22:03:50 11° WNW visible
30 Jan 6.8 03:25:10 10° ESE 03:25:10 10° ESE 03:25:13 10° ESE visible
30 Jan 5.3 05:05:38 27° S 05:05:38 27° S 05:08:03 10° S visible
30 Jan 5.2 18:03:02 10° SE 18:06:55 21° E 18:09:15 16° ENE visible
30 Jan 4.0 19:43:09 10° SSW 19:48:30 83° WNW 19:49:42 55° NNE visible
30 Jan 6.3 21:27:14 10° W 21:30:08 22° WNW 21:30:08 22° WNW visible
31 Jan 6.2 04:32:03 14° SSE 04:32:03 14° SSE 04:32:49 10° SSE visible
31 Jan 5.7 17:29:09 10° ESE 17:31:52 14° E 17:34:35 10° ENE visible
31 Jan 3.9 19:07:49 10° SSW 19:13:06 70° ESE 19:15:51 29° NE visible
31 Jan 5.6 20:51:05 10° WSW 20:55:47 30° NW 20:56:18 30° NNW visible
01 Feb 4.2 18:32:42 10° S 18:37:47 48° ESE 18:41:54 15° NE visible
01 Feb 5.2 20:15:06 10° WSW 20:20:07 40° NW 20:22:19 28° N visible
01 Feb 6.7 22:00:47 10° WNW 22:02:45 14° NW 22:02:45 14° NW visible
02 Feb 4.7 17:57:50 10° SSE 18:02:32 33° ESE 18:07:15 10° NE visible
02 Feb 4.6 19:39:19 10° SW 19:44:32 55° NW 19:48:13 19° NNE visible
02 Feb 6.4 21:24:18 10° WNW 21:27:56 18° NNW 21:28:38 18° NNW visible
03 Feb 4.1 19:03:42 10° SSW 19:09:02 77° WNW 19:14:00 12° NNE visible
03 Feb 6.1 20:47:57 10° W 20:52:06 23° NW 20:54:25 17° N visible
04 Feb 4.0 18:28:18 10° SSW 18:33:37 76° ESE 18:38:56 10° NNE visible
04 Feb 5.8 20:11:45 10° WSW 20:16:21 29° NW 20:20:05 14° N visible
04 Feb 6.8 21:58:10 10° NW 22:00:25 13° NNW 22:00:30 13° NNW visible
05 Feb 4.2 17:53:08 10° S 17:58:16 52° ESE 18:03:26 10° NE visible
05 Feb 5.4 19:35:44 10° WSW 19:40:41 38° NW 19:45:38 10° NNE visible
05 Feb 6.6 21:21:33 10° WNW 21:24:28 15° NNW 21:26:06 13° N visible
06 Feb 4.8 18:59:54 10° SW 19:05:05 51° NW 19:10:17 10° NNE visible
06 Feb 6.5 20:45:02 10° WNW 20:48:33 17° NNW 20:51:38 11° N visible
